When you browse on this site, cookies collect data to enhance your experience and personalize the content and advertising you see.
Visit our Privacy Policy to learn more. By continuing to use the site, you agree to this use of cookies and data.
  • In Spain
  • List of Countries
  • For 7 days
  • Water Temperature
  • Satellite Maps
  • Weather Map
  • Weather Widgets
  • user-avatar
    Login

    Hourly Weather Sekondi

    Today, 18 November, Sunday

    Time Temperature Precipitation Wind Pressure Humidity
    00:00 +27°C° 0 mm 2 mps 757 mmHg 91%
    01:00 +27°C° 0 mm 2 mps 757 mmHg 92%
    02:00 +27°C° 0 mm 2 mps 757 mmHg 92%
    03:00 +26°C° 0 mm 2 mps 757 mmHg 93%
    04:00 +26°C° 0 mm 2 mps 757 mmHg 93%
    05:00 +26°C° 0 mm 2 mps 757 mmHg 94%
    06:00 +26°C° 0 mm 1 mps 757 mmHg 95%
    07:00 +28°C° 0 mm 1 mps 757 mmHg 87%
    08:00 +30°C° 0 mm 1 mps 758 mmHg 78%
    09:00 +32°C° 0 mm 1 mps 758 mmHg 70%
    10:00 +34°C° 0 mm 2 mps 758 mmHg 66%
    11:00 +35°C° 0 mm 2 mps 757 mmHg 61%
    12:00 +36°C° 0 mm 2 mps 757 mmHg 57%
    13:00 +35°C° 0.2 mm 2 mps 757 mmHg 61%
    14:00 +34°C° 0.2 mm 3 mps 756 mmHg 65%
    15:00 +33°C° 0.2 mm 3 mps 755 mmHg 69%
    16:00 +31°C° 0.3 mm 3 mps 756 mmHg 75%
    17:00 +30°C° 0.3 mm 3 mps 756 mmHg 81%
    18:00 +28°C° 0.3 mm 2 mps 756 mmHg 87%
    19:00 +28°C° 0 mm 2 mps 757 mmHg 88%
    20:00 +28°C° 0 mm 2 mps 757 mmHg 89%
    21:00 +27°C° 0 mm 2 mps 758 mmHg 90%
    22:00 +27°C° 0 mm 2 mps 757 mmHg 91%
    23:00 +27°C° 0 mm 2 mps 757 mmHg 91%

    Tomorrow, 19 November, Monday

    Time Temperature Precipitation Wind Pressure Humidity
    00:00 +27°C° 0 mm 2 mps 757 mmHg 92%
    01:00 +27°C° 0.6 mm 2 mps 757 mmHg 92%
    02:00 +27°C° 0.6 mm 2 mps 757 mmHg 93%
    03:00 +26°C° 0.6 mm 2 mps 756 mmHg 94%
    04:00 +26°C° 0.1 mm 2 mps 756 mmHg 94%
    05:00 +26°C° 0.1 mm 2 mps 757 mmHg 94%
    06:00 +26°C° 0.1 mm 2 mps 757 mmHg 94%
    07:00 +28°C° 0 mm 2 mps 757 mmHg 88%
    08:00 +29°C° 0 mm 2 mps 757 mmHg 82%
    09:00 +31°C° 0 mm 3 mps 758 mmHg 75%
    10:00 +34°C° 0 mm 3 mps 758 mmHg 68%
    11:00 +35°C° 0 mm 3 mps 757 mmHg 61%
    12:00 +37°C° 0 mm 3 mps 757 mmHg 53%
    13:00 +36°C° 0.3 mm 3 mps 756 mmHg 57%
    14:00 +35°C° 0.3 mm 3 mps 756 mmHg 61%
    15:00 +34°C° 0.3 mm 3 mps 755 mmHg 65%
    16:00 +33°C° 0.1 mm 3 mps 755 mmHg 71%
    17:00 +30°C° 0.1 mm 3 mps 755 mmHg 77%
    18:00 +29°C° 0.1 mm 3 mps 755 mmHg 83%
    19:00 +29°C° 0 mm 3 mps 756 mmHg 85%
    20:00 +28°C° 0 mm 3 mps 757 mmHg 87%
    21:00 +28°C° 0 mm 3 mps 757 mmHg 88%
    22:00 +28°C° 0 mm 3 mps 757 mmHg 89%
    23:00 +27°C° 0 mm 3 mps 757 mmHg 90%

    Day after tomorrow, 20 November, Tuesday

    Time Temperature Precipitation Wind Pressure Humidity
    00:00 +27°C° 0 mm 3 mps 757 mmHg 91%
    01:00 +27°C° 0.3 mm 3 mps 757 mmHg 92%
    02:00 +27°C° 0.3 mm 3 mps 757 mmHg 94%
    03:00 +27°C° 0.3 mm 3 mps 756 mmHg 95%
    04:00 +27°C° 0 mm 3 mps 756 mmHg 95%
    05:00 +27°C° 0 mm 3 mps 757 mmHg 94%
    06:00 +27°C° 0 mm 3 mps 757 mmHg 94%
    07:00 +28°C° 0 mm 3 mps 757 mmHg 89%
    08:00 +29°C° 0 mm 3 mps 758 mmHg 85%
    09:00 +30°C° 0 mm 3 mps 759 mmHg 80%
    10:00 +31°C° 0.6 mm 3 mps 758 mmHg 77%
    11:00 +33°C° 0.6 mm 3 mps 758 mmHg 75%
    12:00 +33°C° 0.6 mm 3 mps 758 mmHg 73%
    13:00 +33°C° 1.3 mm 3 mps 757 mmHg 74%
    14:00 +33°C° 1.3 mm 4 mps 756 mmHg 75%
    15:00 +32°C° 1.3 mm 4 mps 756 mmHg 77%
    16:00 +30°C° 0.2 mm 3 mps 756 mmHg 81%
    17:00 +29°C° 0.2 mm 3 mps 756 mmHg 85%
    18:00 +28°C° 0.2 mm 3 mps 757 mmHg 89%
    19:00 +28°C° 0 mm 3 mps 757 mmHg 90%
    20:00 +28°C° 0 mm 3 mps 758 mmHg 92%
    21:00 +27°C° 0 mm 3 mps 759 mmHg 93%
    22:00 +27°C° 0 mm 3 mps 759 mmHg 93%
    23:00 +27°C° 0 mm 3 mps 758 mmHg 93%

    21 November, Wednesday

    Time Temperature Precipitation Wind Pressure Humidity
    00:00 +27°C° 0 mm 3 mps 758 mmHg 94%
    01:00 +27°C° 0 mm 3 mps 758 mmHg 94%
    02:00 +27°C° 0 mm 3 mps 757 mmHg 94%
    03:00 +27°C° 0 mm 3 mps 756 mmHg 95%
    04:00 +27°C° 0 mm 3 mps 757 mmHg 95%
    05:00 +26°C° 0 mm 3 mps 757 mmHg 95%
    06:00 +26°C° 0 mm 3 mps 757 mmHg 95%
    07:00 +28°C° 0 mm 3 mps 757 mmHg 88%
    08:00 +30°C° 0 mm 3 mps 758 mmHg 82%
    09:00 +31°C° 0 mm 3 mps 758 mmHg 75%
    10:00 +33°C° 0.1 mm 4 mps 758 mmHg 73%
    11:00 +33°C° 0.1 mm 4 mps 758 mmHg 70%
    12:00 +34°C° 0.1 mm 4 mps 757 mmHg 68%
    13:00 +33°C° 0.6 mm 4 mps 757 mmHg 71%
    14:00 +33°C° 0.6 mm 4 mps 756 mmHg 75%
    15:00 +32°C° 0.6 mm 5 mps 756 mmHg 78%
    16:00 +30°C° 0.4 mm 4 mps 756 mmHg 83%
    17:00 +29°C° 0.4 mm 4 mps 756 mmHg 87%
    18:00 +28°C° 0.4 mm 3 mps 757 mmHg 91%
    19:00 +27°C° 0.1 mm 3 mps 757 mmHg 92%
    20:00 +27°C° 0.1 mm 3 mps 758 mmHg 93%
    21:00 +27°C° 0.1 mm 3 mps 759 mmHg 94%
    22:00 +27°C° 0 mm 3 mps 758 mmHg 94%
    23:00 +27°C° 0 mm 3 mps 758 mmHg 94%

    22 November, Thursday

    Time Temperature Precipitation Wind Pressure Humidity
    00:00 +27°C° 0 mm 3 mps 758 mmHg 94%
    01:00 +26°C° 0 mm 3 mps 757 mmHg 94%
    02:00 +26°C° 0 mm 3 mps 757 mmHg 94%
    03:00 +26°C° 0 mm 3 mps 756 mmHg 94%
    04:00 +26°C° 0 mm 3 mps 756 mmHg 94%
    05:00 +26°C° 0 mm 3 mps 757 mmHg 94%
    06:00 +26°C° 0 mm 3 mps 757 mmHg 94%
    07:00 +28°C° 0 mm 4 mps 757 mmHg 88%
    08:00 +29°C° 0 mm 4 mps 758 mmHg 81%
    09:00 +32°C° 0 mm 4 mps 758 mmHg 75%
    10:00 +33°C° 0 mm 4 mps 758 mmHg 71%
    11:00 +33°C° 0 mm 4 mps 757 mmHg 67%
    12:00 +34°C° 0 mm 4 mps 757 mmHg 63%
    13:00 +34°C° 0.6 mm 4 mps 756 mmHg 67%
    14:00 +33°C° 0.6 mm 4 mps 756 mmHg 71%
    15:00 +32°C° 0.6 mm 4 mps 755 mmHg 74%
    16:00 +30°C° 0 mm 3 mps 756 mmHg 78%
    17:00 +29°C° 0 mm 3 mps 756 mmHg 82%
    18:00 +28°C° 0 mm 3 mps 757 mmHg 86%
    19:00 +28°C° 0 mm 3 mps 757 mmHg 88%
    20:00 +28°C° 0 mm 2 mps 758 mmHg 89%
    21:00 +27°C° 0 mm 2 mps 758 mmHg 91%
    22:00 +27°C° 0 mm 2 mps 758 mmHg 92%
    23:00 +27°C° 0 mm 2 mps 758 mmHg 93%

    23 November, Friday

    Time Temperature Precipitation Wind Pressure Humidity
    00:00 +27°C° 0 mm 2 mps 758 mmHg 94%
    01:00 +27°C° 0.1 mm 2 mps 757 mmHg 94%
    02:00 +26°C° 0.1 mm 2 mps 757 mmHg 95%
    03:00 +26°C° 0.1 mm 2 mps 756 mmHg 95%
    04:00 +26°C° 0 mm 2 mps 756 mmHg 95%
    05:00 +26°C° 0 mm 2 mps 757 mmHg 95%
    06:00 +26°C° 0 mm 3 mps 757 mmHg 95%
    07:00 +28°C° 0 mm 3 mps 757 mmHg 89%
    08:00 +29°C° 0 mm 3 mps 758 mmHg 82%
    09:00 +31°C° 0 mm 3 mps 758 mmHg 75%
    10:00 +33°C° 0 mm 3 mps 758 mmHg 72%
    11:00 +33°C° 0 mm 3 mps 757 mmHg 69%
    12:00 +34°C° 0 mm 2 mps 757 mmHg 66%
    13:00 +34°C° 0.2 mm 3 mps 756 mmHg 67%
    14:00 +34°C° 0.2 mm 3 mps 756 mmHg 67%
    15:00 +34°C° 0.2 mm 3 mps 755 mmHg 67%
    16:00 +31°C° 0 mm 3 mps 755 mmHg 72%
    17:00 +30°C° 0 mm 2 mps 756 mmHg 77%
    18:00 +29°C° 0 mm 2 mps 756 mmHg 82%
    19:00 +29°C° 0 mm 2 mps 756 mmHg 84%
    20:00 +28°C° 0 mm 2 mps 757 mmHg 85%
    21:00 +28°C° 0 mm 2 mps 757 mmHg 87%
    22:00 +28°C° 0 mm 2 mps 757 mmHg 88%
    23:00 +27°C° 0 mm 2 mps 757 mmHg 89%
    Show more